Regional Weather Roundup
Issued by NWS Newport/Morehead, NC

Current Version | Previous Version | Text Only | Print | Product List | Glossary On
Versions: 1 2 3 4 5 6 7 8 9 10 11 12 13 14 15 16 17 18 19 20 21 22 23 24 25 26 27 28 29 30 31 32 33 34 35 36 37 38 39 40 41 42 43 44 45 46 47 48 49 50
000 ASUS42 KMHX 312322 RWRMHX WEATHER ROUNDUP FOR EASTERN NORTH CAROLINA NATIONAL WEATHER SERVICE NEWPORT/MOREHEAD CITY NC 700 PM EDT THU JUL 31 2014 NOTE: "FAIR" INDICATES FEW OR NO CLOUDS BELOW 12,000 FEET WITH NO SIGNIFICANT WEATHER AND/OR OBSTRUCTIONS TO VISIBILITY NCZ015>017-031-032-045>047-102-103-010000- NORTH COAST CITY SKY/WX TMP DP RH WIND PRES REMARKS EDENTON CLOUDY 78 65 64 SE8 30.13S ELIZABETH CITY CLOUDY 78 64 61 E8 30.14R KITTY HAWK CLOUDY 77 63 61 SE8 30.13S MANTEO NOT AVBL $$ NCZ045>047-081-094-103-104-010000- CENTRAL COAST CITY SKY/WX TMP DP RH WIND PRES REMARKS FRISCO PTSUNNY 79 64 60 NE6 30.14R SWANQUARTER N/A 79 N/A N/A E3 30.09S $$ NCZ095-097-098-100-101-010000- SOUTHERN COAST CITY SKY/WX TMP DP RH WIND PRES REMARKS BEAUFORT CLOUDY 80 69 69 E7 30.10F CEDAR ISLAND N/A 79 N/A N/A E16 30.15S JACKSONVILLE CLOUDY 80 68 66 E9 30.11R NEWPORT NOT AVBL PINEY ISLAND NOT AVBL WILMINGTON CLOUDY 80 69 69 E10 30.10R $$ NCZ011>013-027>030-043-044-078>080-089-090>093-098-010000- COASTAL PLAIN CITY SKY/WX TMP DP RH WIND PRES REMARKS AHOSKIE CLOUDY 78 69 73 CALM 30.13R CLINTON CLOUDY 77 70 78 CALM 30.11S ELIZABETHTOWN CLOUDY 78 67 68 CALM 30.11R GOLDSBORO CLOUDY 80 71 73 E6 30.09S GREENVILLE CLOUDY 81 68 65 SE6 30.14R HAVELOCK CLOUDY 78 69 73 E3 30.13R KENANSVILLE CLOUDY 79 67 67 CALM 30.12R KINSTON CLOUDY 81 66 61 E5 30.13R NEW BERN CLOUDY 81 63 54 E5 30.13S RICHLANDS CLOUDY 79 66 65 E5 30.12R ROANOKE RAPIDS NOT AVBL ROCKY MOUNT CLOUDY 79 68 69 CALM 30.13R WASHINGTON CLOUDY 78 67 69 SE5 30.13R WHITEVILLE CLOUDY 78 69 75 CALM 30.08F $$ AMZ130-135-150-152-154-156-158-170-250-252-270-ANZ085-086-088-633-658-670-010000- MARINE OBSERVATIONS STATION/POSITION TIME TEMP WIND PRES WAVE SWELL AIR SEA DIR/SP/G HT/PER HT/PER (UTC) (F) (DEG/KT/KT) (MB) (FT/S) (FT/S) CHESAPEAKE LIGHT NOT AVBL BUOY 44014 2300 77 79 120/ 8/ 10 1020.7 2/ 7 2/ 7 DUCK 2300 78 78 110/ 12/ 14 1019.7 2E DUCK 2300 N/A 3/ 7 OREGON INLET 2300 77 78 80/ 7/ 10 1020.7 BUOY 44095 2300 78 N/A 3/ 7 20E OREGON INLET NOT AVBL HATTERAS CG 2300 78 80 70/ 8/ 11 1020.5 DIAMOND BUOY 2300 VRB 14/ 17 1020.0 3/ 6 2/14 CAPE LOOKOUT 2300 80 90/ 15/ 17 1019.6 BEAUFORT LAB 2300 80 83 100/ 8/ 12 1019.0 30 SE NEW RIVER 2300 81 81 80/ 17/ 19 1018.9 4/ 7 2/ 7 5 SE WRIGHTSVILL 2300 77 81 80/ 17/ 21 N/A BUOY 41002 2158 80 81 170/ 4/ 4 1018.7 4/ 6 3/ 6 BUOY 41004 2300 84 83 130/ 16/ 17 1015.6 4/ 5 2/ 8 $$

USA.gov is the U.S. government's official web portal to all federal, state and local government web resources and services.